Probability
0 2 5 6 5 4 4 6 7 9 10 9 7 5 3 2 1 0 0 0 0 0 0 0 0 0 0 0 0 0 0 0 0 0 0 0 0 0 0 0 0 0 0
0 1 5 7 7 5 5 6 7 8 10 11 10 7 4 1 1 1 1 1 1 0 0 0 0 0 0 0 0 0 0 0 0 0 0 0 0 0 0 0 0 0 0
0 1 4 7 8 7 7 8 7 8 10 12 10 7 4 1 1 3 3 2 2 2 2 2 2 1 0 0 0 0 0 0 0 0 0 0 0 0 0 0 0 0 0
0 0 2 4 7 8 9 9 8 7 9 9 7 4 2 1 1 2 3 3 3 4 5 7 6 3 2 1 1 0 0 0 0 0 0 0 0 0 0 0 0 1 1
0 1 1 3 4 7 9 9 8 7 7 7 5 3 1 1 1 2 2 2 3 5 6 8 9 7 6 5 3 1 1 1 1 0 0 0 0 0 0 0 0 1 2
1 2 2 2 3 5 8 10 9 8 7 6 6 4 2 2 3 3 2 2 3 4 5 7 8 9 8 7 5 3 3 2 1 0 0 0 0 0 0 0 0 1 2
1 2 3 2 1 4 7 9 9 9 8 7 6 5 4 3 4 3 3 3 4 4 5 7 8 8 7 6 5 5 5 3 1 0 0 0 0 0 0 0 0 0 1
0 2 3 3 1 3 6 8 9 9 9 8 7 6 5 4 3 2 2 3 3 4 5 7 9 8 7 5 4 5 5 3 1 0 0 0 0 0 0 0 1 1 1
0 1 3 3 3 3 4 5 6 8 9 9 9 7 5 4 3 1 1 1 2 3 3 5 8 10 9 6 4 3 3 1 1 0 0 0 0 0 0 1 1 1 2
0 0 1 3 2 2 2 2 2 4 6 8 8 8 6 3 2 1 0 0 1 1 1 2 4 7 8 7 4 2 1 0 0 0 0 0 0 1 2 2 2 3 3
0 0 0 1 1 0 0 0 1 2 3 5 6 7 5 2 1 1 0 0 0 0 0 0 1 2 4 3 2 0 0 0 0 0 0 0 1 2 3 3 3 4 5
0 0 0 0 0 0 0 0 1 2 1 2 4 5 3 1 0 0 0 0 0 0 0 0 0 0 0 0 0 0 0 0 0 0 0 0 1 2 4 4 4 6 7
0 0 0 0 0 0 0 0 1 2 2 2 3 3 2 0 0 0 0 0 0 0 0 0 0 0 0 0 0 0 0 0 0 0 0 0 0 2 3 4 5 6 7
0 0 0 0 0 0 0 0 0 1 2 2 2 3 2 1 0 0 0 0 0 0 0 0 0 0 0 0 0 0 0 0 0 0 0 0 0 1 2 4 6 7 7
0 0 0 0 0 0 0 0 0 0 1 1 2 3 3 2 1 0 0 0 0 0 0 0 0 0 0 0 0 0 0 0 0 0 0 0 0 0 1 3 6 7 7
0 0 0 0 0 0 0 0 0 0 0 1 2 3 3 3 1 0 0 0 0 0 0 0 0 1 1 0 0 0 0 0 0 0 0 0 0 0 0 2 4 6 7
0 0 0 0 0 0 0 0 0 0 0 0 1 3 3 3 2 1 0 0 0 0 0 0 0 1 2 1 0 0 0 0 0 0 0 0 0 0 0 0 2 5 7
0 0 0 0 0 0 0 0 0 0 0 0 1 2 3 3 3 1 0 0 0 0 0 0 0 1 2 1 0 0 0 0 0 0 0 0 0 0 0 0 1 3 5
0 0 0 0 0 0 0 0 0 0 0 0 0 1 3 4 3 2 1 0 0 0 0 0 0 1 1 1 0 0 0 0 0 0 0 0 0 0 0 0 0 1 1
0 0 0 0 0 0 0 0 0 0 0 0 0 1 3 4 4 3 1 0 0 0 0 0 0 0 0 0 0 0 0 0 0 0 0 0 0 0 0 0 0 0 0
0 0 0 0 0 0 0 0 0 0 0 0 0 1 2 4 4 3 2 1 0 0 0 0 0 0 0 0 0 0 0 0 0 0 0 0 0 0 0 0 0 0 0
0 0 0 0 0 0 0 0 0 0 0 0 0 0 1 3 4 4 2 1 0 0 0 0 0 0 0 0 0 0 0 0 0 0 0 0 0 0 0 0 0 0 0
0 0 0 0 0 0 0 0 0 0 0 0 0 0 1 3 4 4 2 1 0 0 0 0 0 0 0 0 0 0 0 0 0 0 0 0 0 0 0 0 0 0 0
0 0 0 0 0 0 0 0 0 0 0 0 0 0 1 2 3 3 2 0 0 0 0 0 0 0 0 0 0 0 0 0 0 0 0 0 0 0 0 0 0 0 0
0 0 0 0 0 0 0 0 0 0 0 0 0 0 0 1 3 3 2 1 0 0 0 0 0 0 0 0 0 0 0 0 0 0 0 0 0 0 0 0 0 0 0
0 0 0 0 0 0 0 0 0 0 0 0 0 0 0 1 2 3 2 1 0 0 0 0 0 0 0 0 0 0 0 0 0 0 0 0 0 0 0 0 0 0 0
Wind_Speed
1 2 1 5 7 7 7 8 8 8 8 8 7 7 7 6 6 6 6 5 5 5 5 5 5 4 5 5 5 5 5 5 5 5 6 6 7 7 7 7 6 4 8
1 1 2 6 7 7 8 8 8 8 8 7 7 7 6 6 5 5 5 4 4 4 4 4 4 4 4 4 4 4 5 4 4 5 5 5 6 6 7 7 7 4 7
2 1 3 6 7 8 8 8 8 8 8 8 7 7 6 5 5 5 4 3 3 3 3 3 3 3 3 3 3 4 4 4 4 4 4 2 3 6 6 7 7 7 7
2 2 3 7 8 8 8 9 9 8 8 8 8 7 7 6 5 5 4 3 3 2 2 2 3 3 3 3 3 3 3 4 4 4 2 1 1 5 6 7 7 7 7
3 3 4 8 8 8 9 9 9 8 8 8 8 8 7 7 6 6 5 4 3 3 2 2 2 2 2 3 2 2 3 3 4 3 1 1 1 5 6 7 7 7 7
4 3 4 8 8 9 9 9 9 9 9 9 8 8 7 7 7 7 6 6 5 4 3 3 2 2 2 2 2 2 2 3 3 2 1 1 2 5 6 7 7 8 8
4 3 4 8 8 9 9 9 10 9 9 9 9 8 8 8 8 8 8 7 6 6 5 4 3 2 1 1 1 1 1 2 2 2 2 2 3 6 6 6 8 8 9
4 4 5 8 9 9 9 9 10 10 10 10 10 10 9 9 9 9 9 8 7 6 6 5 4 3 2 1 0 0 0 1 1 2 2 2 5 7 7 7 7 8 9
4 5 5 5 6 8 9 9 10 10 10 10 10 10 10 10 9 9 9 8 8 7 7 7 6 4 3 3 2 1 0 1 1 1 2 2 6 8 8 8 8 9 9
4 4 4 4 5 4 5 8 9 9 10 10 10 10 10 10 9 9 8 9 8 8 8 8 7 7 5 4 3 3 1 0 1 2 2 3 7 8 9 9 9 10 10
4 3 3 4 4 4 4 7 7 8 9 9 8 10 8 4 4 5 8 9 9 8 7 7 7 7 6 5 4 4 2 1 1 1 2 5 8 8 9 9 10 11 11
1 1 2 3 3 3 4 4 3 3 4 4 3 4 3 3 4 5 8 9 9 8 7 7 7 7 5 3 3 4 1 1 1 2 3 7 9 10 10 10 10 10 11
2 1 1 2 2 3 2 2 2 2 2 3 3 3 3 3 3 3 2 4 4 6 4 4 4 3 3 2 2 2 2 1 1 2 3 7 9 10 10 11 11 11 11
3 2 1 1 2 2 2 2 2 2 2 2 2 3 2 2 2 2 2 2 2 2 2 2 2 3 3 2 2 2 2 2 2 2 3 7 9 10 11 11 11 11 12
3 3 2 2 2 2 2 1 2 1 1 1 2 2 2 2 2 2 2 2 2 2 2 2 2 2 3 3 2 2 3 3 3 2 3 7 9 10 11 12 12 13 13
5 4 3 3 2 2 2 1 1 1 1 1 1 2 1 1 1 1 1 2 2 2 1 1 2 2 2 2 3 3 3 3 3 3 3 5 8 10 11 12 13 13 14
5 4 4 3 3 2 2 1 1 0 1 1 1 1 1 1 0 0 1 1 2 2 2 2 2 1 2 2 3 3 3 3 4 4 4 3 4 7 10 12 13 14 14
5 4 4 3 3 2 2 1 0 0 0 0 1 1 1 1 0 0 1 1 2 1 1 1 2 2 2 2 3 3 3 3 4 4 4 4 3 4 7 11 13 14 15
6 5 4 3 3 2 2 1 0 0 0 1 1 1 1 1 1 1 1 1 2 1 1 2 2 2 2 3 3 3 3 3 4 5 4 4 4 4 4 7 11 13 15
4 4 4 3 2 2 1 1 0 1 1 1 1 1 2 1 1 1 1 2 1 1 2 2 2 2 2 3 4 4 4 4 4 4 4 4 4 5 5 5 6 8 12
3 4 4 3 2 2 1 1 1 1 2 1 2 2 2 2 2 1 2 2 1 1 2 3 2 2 2 2 2 3 4 4 4 3 3 3 4 5 5 5 4 4 5
5 4 4 4 3 3 2 2 1 1 1 2 2 3 3 3 3 2 2 2 2 2 2 3 2 2 2 1 1 2 4 4 3 3 3 4 5 4 5 6 5 6 5
5 6 5 5 4 3 2 1 0 1 1 1 2 2 3 3 3 3 3 3 3 3 3 4 3 3 3 2 2 2 2 4 4 3 4 4 4 4 5 5 7 6 7
6 5 4 4 4 3 3 2 2 2 3 4 3 3 4 4 4 4 4 4 4 4 4 5 4 4 3 3 3 3 4 3 3 5 3 3 5 5 5 6 6 7 7
4 4 3 3 3 3 3 4 3 3 3 3 3 4 5 4 5 5 5 5 5 5 6 6 5 5 4 5 4 3 3 4 5 5 7 5 5 4 5 5 5 6 7
2 2 2 3 4 3 4 4 4 5 4 4 4 4 4 4 4 5 5 5 6 5 6 6 6 7 6 6 5 4 4 4 4 5 7 7 7 6 5 5 5 6 6
Wind_Direction
260 275 328 88 87 87 86 86 81 79 81 83 87 93 96 99 101 102 104 108 111 112 115 114 112 120 125 123 121 125 126 133 138 140 138 140 138 137 132 127 120 110 119
180 273 79 89 87 81 79 79 78 77 76 78 80 83 88 92 97 100 101 106 114 115 115 116 115 112 117 122 121 118 121 129 136 135 131 137 147 145 141 138 137 133 127
114 78 83 87 85 82 78 74 71 69 69 71 73 74 78 84 90 91 92 97 109 113 114 115 112 111 116 120 126 127 129 126 130 130 123 118 154 160 157 154 153 148 141
97 74 78 87 83 81 80 76 71 67 65 66 66 66 67 69 71 73 76 81 93 101 108 113 111 115 121 124 126 139 142 139 134 126 109 133 174 176 170 167 165 159 155
77 66 78 86 82 79 78 78 75 71 66 63 63 63 62 61 60 59 59 61 65 70 77 103 111 128 127 130 143 159 166 157 148 131 126 170 202 196 187 180 176 172 169
76 61 74 85 84 80 77 76 73 71 68 64 61 60 60 58 56 54 52 52 53 56 60 67 82 111 131 146 165 171 176 173 151 139 159 193 206 209 203 193 187 185 184
79 57 67 82 83 80 78 77 74 70 67 63 59 56 56 56 55 51 47 45 46 46 49 50 53 68 85 112 180 206 197 162 153 164 186 208 215 214 212 205 201 197 195
84 62 52 71 77 75 75 74 72 68 64 61 58 54 51 52 52 50 44 42 40 41 42 39 37 37 38 27 330 329 142 126 173 191 203 220 228 223 223 219 212 206 206
70 68 54 50 57 65 70 69 69 68 64 61 57 53 48 47 47 48 43 39 39 37 39 35 30 22 21 19 8 9 70 121 148 213 222 228 236 232 233 228 222 216 216
58 59 57 53 53 52 54 62 64 65 63 60 57 52 47 44 44 42 40 36 37 36 38 36 31 26 21 16 11 8 1 84 234 230 230 243 244 242 241 237 231 226 222
56 46 55 59 55 54 57 56 55 58 56 55 48 48 46 34 31 33 32 34 32 31 33 33 29 25 24 16 9 3 10 10 256 260 244 251 249 250 249 246 240 236 231
101 44 58 70 66 57 55 51 44 49 46 46 44 43 42 35 29 34 28 31 27 24 24 25 25 24 26 9 3 9 357 338 272 272 263 258 256 256 256 254 251 245 240
171 149 89 95 84 78 69 62 49 45 44 39 41 44 46 41 29 28 22 17 14 18 13 8 13 13 11 4 355 351 338 331 300 287 281 271 264 262 262 260 257 254 249
163 174 159 119 101 89 83 73 68 56 48 41 31 39 52 46 29 18 17 0 7 2 359 4 357 354 355 351 344 336 328 314 295 288 283 284 273 268 266 266 264 260 255
177 183 180 155 133 119 92 72 66 60 56 45 34 36 54 61 32 15 3 358 352 358 354 346 346 343 343 340 336 333 313 305 292 286 290 291 284 274 270 270 269 267 262
191 191 184 169 161 138 120 106 89 70 51 41 34 23 43 66 52 17 357 352 345 342 339 328 321 319 318 321 326 322 306 298 293 290 286 289 290 282 276 275 274 272 268
191 187 185 177 161 148 140 135 110 100 76 41 357 1 23 40 56 24 340 330 322 325 330 334 327 330 330 332 323 315 308 298 293 287 284 277 281 285 279 276 276 276 274
182 184 194 178 160 162 158 155 151 127 80 329 314 325 337 354 356 314 305 300 305 317 322 317 317 324 316 314 307 299 300 294 286 281 279 274 273 281 281 281 278 277 277
186 182 184 175 171 173 165 161 185 252 281 277 287 293 304 309 325 334 280 284 307 321 316 309 320 311 303 306 296 289 287 284 279 280 275 274 272 272 274 284 283 281 280
179 175 172 171 173 155 128 96 7 323 294 278 267 265 274 283 296 307 294 290 298 308 308 305 295 303 286 284 296 296 282 277 270 264 267 276 279 278 277 280 279 281 281
172 172 173 170 178 152 146 168 215 260 271 275 263 257 261 261 265 255 272 282 276 268 274 282 283 291 299 302 315 309 292 269 260 260 269 278 280 280 279 278 275 274 279
184 185 185 189 188 190 190 191 199 218 248 254 264 267 257 258 262 262 255 261 266 265 278 278 282 269 277 298 302 321 316 314 292 276 275 270 277 283 287 290 281 277 275
194 195 197 202 201 203 196 157 63 12 328 296 283 273 264 263 262 256 252 252 257 250 255 260 249 239 264 265 215 212 268 279 303 277 260 266 269 277 281 282 278 275 274
205 201 202 203 209 206 186 186 198 219 246 249 254 262 274 265 261 257 252 248 249 246 249 252 248 238 236 254 251 233 234 244 275 297 283 272 279 277 273 281 281 275 272
198 197 203 204 215 211 203 200 207 232 243 261 269 270 271 269 261 256 251 247 249 247 246 248 249 240 231 237 238 239 254 257 245 258 282 286 285 268 264 270 276 276 271
192 196 200 207 225 217 212 213 215 231 249 268 275 273 274 274 269 262 256 250 250 249 247 246 243 239 239 242 242 234 237 244 244 249 268 279 285 285 277 268 266 268 267